Regional Weather Roundup
Issued by NWS

Home | Current Version | Previous Version | Text Only | Print | Product List | Glossary On
Versions: 1 2 3 4 5 6 7 8 9 10 11 12 13 14 15 16 17 18 19 20 21 22 23 24 25 26 27 28 29 30 31 32 33 34 35 36 37 38 39 40 41 42 43 44 45 46 47 48 49 50
681
ASUS46 KSEW 062110
RWRWA

WASHINGTON REGIONAL WEATHER ROUNDUP
NATIONAL WEATHER SERVICE SEATTLE WA
100 PM PST SAT FEB 06 2016

NOTE:"FAIR" INDICATES FEW OR NO CLOUDS BELOW 12,000 FEET WITH NO
SIGNIFICANT WEATHER AND/OR OBSTRUCTIONS TO VISIBILITY.

WAZ505-507>509-062200-
SEATTLE, TACOMA, EVERETT, AND VICINITY

CITY           SKY/WX    TMP DP  RH WIND       PRES   REMARKS
EVERETT        CLOUDY    45  39  79 CALM      30.45F
BOEING FIELD   CLOUDY    49  41  74 SW6       30.46F
RENTON         CLOUDY    51  39  63 S8        30.46F
SEATAC AIRPORT CLOUDY    47  39  74 S8        30.45F
JBLM-MCCHORD   CLOUDY    47  46  95 S6        30.46F
PUYALLUP       FAIR      48  39  71 S5        30.46F
BREMERTON      CLOUDY    45  43  93 CALM      30.50S
JBLM-FT LEWIS  PTSUNNY   47  46  99 E3        30.45F
TACOMA NARROWS CLOUDY    46  41  82 S8        30.46F
$$

WAZ001-503-506-510-514-515-062200-
NORTH INTERIOR

CITY           SKY/WX    TMP DP  RH WIND       PRES   REMARKS
BELLINGHAM     CLOUDY    47  40  76 S10       30.45F
FRIDAY HARBOR  CLOUDY    47  40  76 S9        30.46F
EASTSOUND      CLOUDY    48  39  71 SW5       30.44S
PORT ANGELES   CLOUDY    48  39  71 SE6       30.45F
EDIZ HOOK      FAIR      47  41  80 E5        30.46S
PORT TOWNSEND  FAIR      46  43  87 S3        30.47S
NAS WHIDBEY    CLOUDY    47  42  83 S7        30.51S
ARLINGTON      CLOUDY    46  37  71 SE7       30.49S
BURLINGTON     MOSUNNY   48  43  81 SE5       30.46F
$$

WAZ020-022-039-040-504-511-512-062200-
SOUTHWEST INTERIOR

CITY           SKY/WX    TMP DP  RH WIND       PRES   REMARKS
SHELTON        CLOUDY    47  40  76 SW7       30.43F
OLYMPIA        CLOUDY    46  42  86 SW5       30.46F
CHEHALIS       FAIR      48  43  81 S6        30.46F
KELSO          CLOUDY    48  41  76 SE6       30.49F
VANCOUVER      CLOUDY    50  43  77 S3        30.46F
SCAPPOOSE, OR  CLOUDY    49  42  77 CALM      30.47F
PORTLAND, OR   CLOUDY    51  42  71 CALM      30.47F
$$

WAZ021-516-517-062200-
WASHINGTON COAST

CITY           SKY/WX    TMP DP  RH WIND       PRES   REMARKS
FORKS          CLOUDY    48  42  80 E5        30.44S
HOQUIAM        PTSUNNY   49  45  86 E5        30.45F
ASTORIA, OR    CLOUDY    52  46  80 NE7       30.44F
$$

WAZ019-023-024-040-518-519-062200-
CASCADE MOUNTAINS AND COLUMBIA GORGE

CITY           SKY/WX    TMP DP  RH WIND       PRES   REMARKS
STAMPEDE PASS  NOT AVBL
TROUTDALE, OR  CLOUDY    52  38  58 NE3       30.46F
THE DALLES, OR CLOUDY    53  34  48 N13       30.45F
$$

WAZ026-027-041>044-520-521-062200-
EAST SLOPES

CITY           SKY/WX    TMP DP  RH WIND       PRES   REMARKS
OMAK           CLOUDY    38  29  70 S3        30.37S
WENATCHEE      CLOUDY    43  30  60 CALM      30.39S
ELLENSBURG     CLOUDY    43  28  55 W14       30.39F
YAKIMA         CLOUDY    51  29  42 S3        30.42R
$$

WAZ028-034-035-062200-
COLUMBIA BASIN

CITY           SKY/WX    TMP DP  RH WIND       PRES   REMARKS
EPHRATA        CLOUDY    46  32  58 SW7       30.38S
MOSES LAKE     CLOUDY    45  33  63 W14       30.40S
PASCO          CLOUDY    50  35  56 SW8       30.45R
HERMISTON, OR  CLOUDY    51  32  48 W9        30.44S
$$

WAZ036>038-062200-
NORTHEAST WASHINGTON

CITY           SKY/WX    TMP DP  RH WIND       PRES   REMARKS
SPOKANE GEIGER CLOUDY    38  31  76 W7        30.36R
SPOKANE FELTS  CLOUDY    42  31  64 W6        30.38R
FAIRCHILD AFB  CLOUDY    37  32  82 W14       30.34S
COEURDALENE,ID CLOUDY    41  32  70 SW16      30.33S
DEER PARK      CLOUDY    37  30  75 S8        30.35S
$$

WAZ029>033-062200-
SOUTHEAST WASHINGTON

CITY           SKY/WX    TMP DP  RH WIND       PRES   REMARKS
PULLMAN        CLOUDY    41  31  67 W16G22    30.39F
LEWISTON, ID   CLOUDY    51  27  39 N6        30.39S
WALLA WALLA    CLOUDY    48  31  51 SW10      30.44S
PENDLETON, OR  CLOUDY    48  28  46 NW7       30.43S
$$




USA.gov is the U.S. government's official web portal to all federal, state and local government web resources and services.